Theta_e
290 290 290 290 290 290 289 289 290 289 289 288 288 288 288 288 288 288 288 289 288 289 290 290 289 290 290 290 290 291 290 290 291 291 291 291 292 295 301 302 303 304 307 310 311 313 314 316 317 318 318 319 319 319 320 320 321 322 322 323 324 325 326 327 327 327 327 330 334 338 339 340 342 342 342 343 344 343 343 344 344 344 345 345 345
290 289 289 289 289 289 289 289 288 288 287 288 288 288 288 288 288 288 289 288 288 289 289 288 289 289 289 290 289 289 290 289 290 290 290 290 291 292 298 299 301 303 304 306 309 310 313 314 315 316 317 318 319 319 319 320 320 321 321 322 322 323 324 324 326 327 327 327 327 328 334 339 340 341 341 341 342 343 343 343 343 344 346 346 345
289 289 289 288 289 289 288 288 287 287 287 287 288 289 288 288 288 288 288 288 288 288 288 288 288 288 289 289 289 289 289 289 290 290 290 290 290 290 292 297 299 300 302 304 306 308 309 311 313 314 316 317 317 318 318 318 319 319 320 321 322 323 323 323 324 324 325 326 327 328 328 331 336 339 340 340 340 341 342 343 343 343 343 344 345
289 289 289 288 288 287 288 288 287 287 288 287 288 288 288 287 288 289 288 287 287 287 288 288 287 287 288 288 288 288 288 289 289 289 289 289 289 289 290 292 297 299 300 302 304 305 307 308 310 311 312 314 315 316 317 317 317 318 319 320 320 321 321 321 322 322 323 324 326 327 327 328 333 336 338 339 340 340 340 341 343 343 343 343 343
288 290 291 287 288 287 288 288 287 287 287 288 287 286 286 286 287 288 287 288 287 287 288 287 286 286 287 287 287 287 288 288 288 288 288 288 289 289 289 290 291 296 298 300 301 303 305 307 307 308 310 312 313 315 316 316 316 316 317 317 318 319 320 321 321 321 321 322 323 324 326 328 329 329 335 338 339 339 340 340 340 343 343 344 343
289 288 287 287 287 287 287 286 286 287 287 287 286 286 286 286 287 286 289 287 285 286 286 285 285 285 286 286 286 286 286 287 287 287 288 288 288 288 288 289 289 290 292 298 299 301 303 305 306 307 308 310 311 312 313 313 314 315 316 317 318 319 320 320 321 321 322 322 322 322 322 323 326 328 329 332 337 339 340 340 339 339 342 343 343
288 287 287 287 286 286 286 286 287 286 285 286 285 285 286 285 286 285 284 285 285 286 285 284 285 285 285 286 285 286 286 286 286 287 287 287 287 288 288 288 289 289 291 290 294 299 301 303 305 306 307 308 308 309 310 312 313 314 315 316 317 317 318 318 319 320 321 321 321 322 321 322 322 323 326 328 332 337 338 339 339 339 338 340 342
288 287 286 286 285 285 285 287 286 286 285 286 286 284 285 286 286 285 284 284 285 284 284 284 284 284 285 285 285 286 286 286 286 286 286 286 287 287 288 288 288 288 293 291 291 293 299 301 303 305 305 305 306 307 309 310 311 312 313 314 315 316 316 316 316 317 318 317 317 319 320 321 321 322 323 324 325 331 336 338 339 340 339 339 338
288 287 286 286 285 285 285 286 287 285 285 284 284 286 284 286 284 287 284 283 283 283 283 283 284 284 285 285 285 286 285 285 285 285 287 286 286 287 287 288 289 294 290 290 290 291 295 300 302 303 304 305 305 305 307 308 309 311 312 313 313 313 313 314 315 315 315 316 316 317 318 319 320 321 322 322 323 324 327 335 339 339 339 339 339
287 287 286 286 285 285 285 285 286 285 284 284 284 284 284 284 283 284 284 283 282 282 282 283 284 284 285 284 285 284 285 285 285 288 286 286 286 286 287 287 288 288 289 290 290 291 291 295 300 301 303 303 303 303 304 305 307 309 311 311 311 311 312 312 313 314 314 315 316 317 318 319 319 320 321 321 322 324 326 326 331 338 339 339 339
287 286 286 286 285 285 285 285 285 284 284 283 283 285 285 283 283 283 284 284 283 282 283 283 284 284 284 284 284 284 285 285 286 285 285 285 286 289 289 288 289 289 290 290 290 291 291 292 292 292 293 300 300 300 302 304 304 305 306 308 309 310 311 311 312 312 313 314 315 315 316 318 320 320 321 321 322 322 323 326 327 327 336 339 339
286 286 286 285 284 284 284 285 284 283 283 283 282 282 282 282 282 283 282 283 285 283 283 282 283 282 283 284 284 284 283 284 284 284 285 285 285 287 287 288 288 289 289 290 291 291 291 292 292 291 291 294 298 299 299 300 300 301 303 306 308 309 309 309 310 311 311 311 313 314 315 316 317 318 319 320 322 322 322 322 325 327 329 334 338
286 286 285 286 284 284 284 283 284 284 283 283 282 282 283 282 283 284 283 281 281 282 282 282 281 281 282 282 282 283 284 285 284 284 284 284 285 285 286 287 288 288 289 289 289 290 290 289 288 288 288 288 290 295 297 297 297 299 302 305 307 308 309 309 309 309 309 310 310 312 313 314 316 317 317 316 317 320 323 323 323 326 328 334 336
286 285 285 285 284 283 283 283 283 283 283 283 282 286 284 282 282 281 282 282 280 282 283 282 279 278 278 279 280 281 282 283 282 283 284 285 284 284 284 284 285 285 285 285 287 287 287 287 287 288 288 288 289 289 290 291 293 297 300 304 306 307 307 308 308 309 308 309 310 311 312 313 314 315 315 316 317 318 320 323 324 324 325 330 334
286 286 285 284 284 283 283 283 283 284 283 282 282 281 281 281 281 281 280 281 282 283 282 282 279 279 279 278 276 277 281 280 281 281 283 283 284 283 284 284 284 284 285 286 286 286 286 287 287 287 287 287 287 288 288 291 291 295 297 298 299 302 305 306 307 309 309 308 309 310 311 311 313 315 316 316 318 319 321 321 323 324 326 326 328
285 285 285 284 283 283 283 282 282 283 282 281 281 281 281 281 281 282 281 278 278 278 283 281 280 279 275 277 276 276 275 276 278 281 283 283 283 283 284 284 285 285 285 284 285 285 285 286 286 286 286 287 287 287 288 288 291 294 295 295 295 299 302 304 306 308 308 309 310 310 310 311 312 312 314 316 319 321 322 322 322 322 322 324 329
285 285 285 284 283 283 283 282 282 282 282 281 280 281 281 281 281 281 280 279 278 279 280 281 280 282 279 276 275 275 274 277 278 279 279 280 281 282 283 284 284 283 284 284 285 285 285 285 285 285 285 286 286 286 287 287 287 290 289 292 294 295 297 303 306 308 309 310 310 309 310 310 311 312 314 313 316 318 318 317 317 320 323 323 323
285 285 285 284 283 283 282 282 282 281 282 281 281 280 280 280 281 280 279 280 279 279 277 281 282 282 281 280 279 274 275 277 277 274 278 282 281 282 282 282 282 283 283 284 284 284 285 285 285 284 285 285 285 286 286 286 288 287 287 288 294 298 299 300 304 306 308 309 310 310 310 311 311 311 312 314 315 314 318 319 318 318 317 320 323
284 284 284 284 283 283 283 282 282 281 283 281 280 280 280 280 281 280 280 283 280 278 278 278 278 279 281 281 281 281 280 277 274 277 274 277 277 279 280 281 281 282 282 282 283 283 283 284 283 283 284 284 285 285 285 286 289 290 291 292 295 297 298 298 299 301 304 307 308 309 309 310 310 311 311 312 313 315 316 316 317 318 317 317 317
284 284 284 284 283 283 283 282 281 281 282 280 280 280 281 281 281 281 280 281 280 278 277 278 277 277 281 279 278 279 279 279 278 277 275 274 275 278 279 280 280 280 281 281 282 282 282 282 282 283 283 284 284 284 285 285 285 285 286 290 293 296 297 297 298 297 299 301 305 307 309 310 310 311 311 311 312 313 315 316 317 318 318 318 321
284 284 283 283 284 283 282 281 281 281 282 281 280 280 280 279 279 279 279 279 279 279 278 277 278 277 277 276 277 276 277 277 277 276 275 274 274 275 276 278 278 279 281 281 281 281 282 281 282 283 283 283 283 283 284 284 284 284 287 290 292 294 295 295 295 296 296 298 301 304 307 309 310 312 312 312 312 312 313 313 315 318 319 319 320
283 283 283 283 283 282 282 281 281 281 282 280 280 279 279 279 279 279 279 278 279 279 279 278 278 277 277 278 277 276 276 276 275 275 275 275 273 274 275 275 275 276 278 279 280 281 281 282 281 281 282 282 282 282 283 283 283 285 286 289 290 292 293 293 295 296 297 298 298 300 303 306 308 309 312 313 313 313 312 314 314 315 319 320 321
283 283 283 282 282 282 281 281 281 281 281 280 279 279 279 279 279 279 279 278 278 278 280 279 279 278 277 277 276 276 275 275 275 275 275 274 274 274 275 276 275 275 277 279 280 280 281 281 280 281 281 281 282 282 282 282 285 286 287 288 289 290 291 294 294 294 295 296 297 297 299 300 303 306 309 311 312 313 314 313 313 313 315 318 318
282 282 281 282 282 281 281 280 280 280 280 279 279 279 279 279 278 278 278 278 278 279 277 277 277 277 277 277 277 277 277 276 276 276 275 275 275 274 274 275 275 276 278 278 279 279 279 279 280 280 281 281 281 282 282 283 283 286 285 286 288 289 291 292 292 293 294 295 296 296 298 299 300 302 304 307 310 312 313 313 313 313 314 316 317
281 281 281 281 281 280 280 280 279 279 279 279 279 279 279 278 278 278 277 277 277 277 276 276 276 276 276 276 276 277 277 277 277 276 276 276 275 273 275 275 273 274 276 276 276 278 279 279 280 280 280 280 281 281 281 281 281 283 285 284 286 287 288 289 290 291 292 293 295 296 297 299 300 301 303 305 308 310 311 312 313 314 314 315 316
282 281 282 281 281 281 280 280 279 279 279 279 278 278 278 278 278 277 277 277 277 276 276 276 276 276 276 276 276 276 276 277 276 276 276 275 274 274 273 274 274 274 275 276 277 276 276 278 278 279 278 279 280 280 279 280 280 283 284 283 283 285 286 288 290 291 292 292 293 294 294 295 298 299 300 304 305 307 310 310 312 313 314 314 316
282 282 281 281 281 280 280 279 279 279 279 278 279 278 278 278 278 277 277 277 276 277 276 276 276 276 276 276 276 276 276 277 276 276 276 276 275 275 274 271 272 273 273 275 275 276 276 278 278 278 279 279 279 278 278 278 281 283 283 281 280 283 285 288 290 290 290 291 292 293 293 293 295 297 298 299 301 303 306 308 311 313 314 313 314
281 281 281 281 280 279 279 279 279 278 278 278 278 277 277 277 277 277 276 278 276 276 276 276 276 276 276 276 275 276 276 276 276 276 276 276 276 275 275 273 271 269 272 272 274 275 277 276 278 278 278 277 278 278 280 281 279 282 282 279 279 280 283 286 287 289 290 290 291 292 292 292 293 294 295 296 297 298 299 301 302 303 305 306 307
281 280 280 280 280 279 279 278 278 278 278 277 277 277 276 277 276 276 275 276 276 275 276 275 275 275 275 275 275 276 276 276 276 276 276 276 276 276 275 274 273 271 270 270 272 273 275 276 274 276 276 276 278 279 278 277 279 280 279 279 279 278 281 284 286 288 289 290 290 291 291 292 292 293 294 295 296 297 298 299 301 303 304 306 306
281 281 280 279 279 279 278 277 277 277 277 277 276 276 276 276 276 276 276 275 275 275 275 275 275 275 275 275 275 275 276 275 275 275 275 275 275 275 275 275 275 272 272 270 270 273 273 276 276 275 278 277 278 278 278 277 281 280 278 278 278 278 282 283 285 286 288 289 289 290 291 290 291 292 292 294 295 296 298 298 299 300 302 305 309
280 279 279 278 278 278 277 277 277 277 276 276 276 276 276 275 275 275 275 275 275 274 275 275 275 275 274 274 275 274 275 274 274 274 275 275 275 275 274 275 274 274 273 272 269 273 275 273 275 277 276 277 277 277 277 277 279 279 278 277 277 280 282 281 283 285 286 287 288 289 289 290 290 291 292 293 294 296 298 298 298 299 301 303 307
279 279 278 278 278 277 276 276 276 276 276 276 276 275 275 275 275 275 275 274 274 274 274 275 275 275 274 274 274 274 274 274 273 274 274 274 274 274 274 274 274 274 273 272 270 270 274 274 275 275 276 276 276 276 276 276 278 280 277 277 277 280 278 278 281 283 284 285 287 288 289 289 290 291 291 292 294 295 296 297 298 299 301 303 305
278 278 277 277 277 277 276 276 276 275 275 275 275 275 275 274 274 274 274 274 273 273 273 273 274 273 273 273 273 273 273 273 273 273 273 273 273 273 273 273 273 273 273 272 270 270 273 275 274 274 275 276 275 276 275 276 276 276 278 277 277 277 277 277 278 281 283 284 285 287 288 289 290 290 291 292 292 294 296 298 299 299 299 302 303
278 277 277 277 276 276 276 275 275 275 275 275 275 275 274 274 273 274 273 273 273 273 273 273 273 273 273 272 272 273 273 272 272 272 272 272 272 272 272 273 272 272 273 272 271 270 270 273 273 275 274 276 274 276 275 274 274 276 275 275 276 277 276 277 277 277 282 283 285 287 288 289 289 291 291 292 293 295 296 298 298 297 300 301 300
277 277 277 276 276 276 275 275 275 275 275 274 274 274 274 273 273 273 273 273 272 272 272 272 272 272 272 272 272 272 272 272 272 272 272 272 272 272 272 272 272 272 273 273 271 270 270 270 273 272 273 274 274 274 275 275 275 275 274 275 275 276 277 277 277 277 281 284 286 287 288 288 289 290 290 291 292 293 294 296 297 297 298 300 301
276 276 276 276 275 275 275 274 274 274 274 274 273 273 273 273 272 272 272 272 272 272 272 272 272 272 272 271 271 272 272 271 271 271 272 272 272 272 272 272 272 272 272 272 272 271 271 270 272 272 273 273 273 275 275 276 275 275 275 275 276 276 276 277 277 277 280 283 285 286 287 288 288 289 290 291 292 293 294 294 295 297 298 298 299
276 275 275 275 275 275 274 274 274 273 273 273 273 272 272 272 272 272 272 272 272 272 272 272 273 272 272 271 271 272 272 271 271 271 271 271 272 271 271 272 272 272 272 273 272 273 271 270 271 273 274 273 275 274 275 274 274 275 275 275 275 275 276 277 277 278 281 283 284 284 285 286 287 288 289 291 292 293 294 295 296 296 296 297 298
275 275 275 275 275 274 274 274 273 273 273 272 272 272 272 272 272 272 271 272 272 272 272 272 272 272 272 272 272 272 271 271 271 271 271 271 272 272 272 272 273 273 273 273 273 273 272 272 272 271 273 273 273 274 275 275 274 273 274 275 276 276 276 275 276 278 278 279 278 279 282 283 284 286 288 289 291 293 294 295 296 296 296 296 297
275 274 274 274 274 274 273 273 273 272 272 272 271 271 271 271 271 271 271 271 271 271 271 271 272 272 272 272 272 272 271 272 272 272 272 272 273 273 273 273 273 273 273 273 273 273 272 272 272 273 272 273 274 272 275 276 275 274 273 273 273 276 276 276 275 277 278 278 281 283 283 283 284 284 285 287 290 292 293 294 295 296 295 295 297
274 274 273 273 273 273 272 272 272 272 271 271 271 270 270 270 270 271 271 271 271 271 271 271 271 271 272 272 272 272 273 273 273 273 273 273 273 273 274 274 274 273 273 273 273 273 272 272 272 272 272 272 273 274 275 275 274 274 275 274 272 273 275 276 276 275 277 277 277 278 281 282 283 284 285 286 288 290 293 294 295 295 295 295 296
274 273 273 273 272 272 272 272 272 272 272 272 271 271 270 271 271 271 271 271 271 271 271 271 272 272 272 273 273 274 274 276 277 278 278 278 275 274 275 275 274 273 273 273 272 272 272 272 271 272 272 272 272 272 272 272 272 272 274 275 274 275 275 275 276 277 277 276 277 278 278 279 279 280 281 283 285 287 289 292 294 294 294 296 297
272 272 272 272 272 272 272 272 272 272 271 271 273 275 274 271 271 271 271 271 271 271 271 272 273 274 274 274 275 277 278 278 278 279 280 280 280 278 277 276 276 275 275 274 274 274 273 272 272 272 272 272 273 273 273 274 275 275 274 274 273 274 275 274 275 276 278 277 277 277 278 280 281 282 284 284 286 288 289 291 293 294 295 296 298
272 272 272 271 271 271 271 271 271 271 271 271 275 276 277 278 273 271 271 271 272 273 273 273 273 274 275 275 276 277 277 277 277 278 279 279 279 280 280 280 279 277 275 274 274 274 273 273 273 273 273 273 273 275 274 275 275 275 274 275 274 274 273 272 272 275 279 278 277 277 278 281 282 281 282 284 286 287 290 291 294 294 295 296 297
271 271 272 271 271 271 271 271 271 271 271 274 276 277 278 278 278 274 273 274 274 274 274 274 274 274 275 275 275 275 275 275 275 275 276 278 279 279 279 280 280 280 280 277 275 274 274 273 273 273 273 273 273 274 274 275 274 275 275 275 275 274 274 273 274 273 277 279 278 277 277 280 281 281 282 283 285 286 287 289 291 292 294 295 296
271 270 271 271 270 270 270 270 270 271 271 275 277 278 278 278 278 278 276 276 275 275 275 275 275 275 275 274 274 274 274 276 276 275 274 274 277 278 279 279 279 280 280 280 281 277 276 275 274 273 274 274 273 274 275 275 276 274 275 274 275 275 275 274 275 275 277 280 279 277 276 279 280 279 279 281 282 284 286 288 291 292 293 294 294
270 270 270 270 270 270 270 270 271 271 271 274 277 277 277 277 278 278 276 276 275 275 275 275 274 274 273 273 273 273 274 274 274 274 274 275 275 275 275 276 276 277 279 279 279 279 279 276 275 273 275 276 274 275 276 277 275 274 274 273 274 274 274 274 275 276 278 280 277 277 275 277 280 279 278 280 282 283 284 287 290 291 292 293 294
269 269 269 269 270 270 271 271 271 271 271 274 276 276 276 277 277 278 276 276 275 275 274 274 273 273 273 273 273 273 273 273 274 275 275 275 275 275 275 275 275 276 276 276 276 276 276 276 276 275 276 276 276 276 277 277 276 276 276 275 275 275 275 276 276 277 277 279 279 277 274 277 280 278 278 280 281 282 285 288 291 292 292 293 294
269 269 269 270 270 270 271 270 270 269 270 274 275 275 276 277 278 276 275 275 273 273 273 273 273 273 273 273 273 273 273 273 276 278 278 276 275 275 274 275 275 275 275 278 280 280 279 278 278 277 278 278 280 278 278 278 278 278 277 277 277 276 275 274 273 275 276 279 280 278 276 277 280 278 279 281 283 283 285 286 290 292 293 293 294
269 269 269 270 270 270 270 269 269 269 269 272 274 275 275 276 276 274 274 273 273 273 272 273 273 273 273 273 273 273 274 274 276 278 279 278 275 274 274 274 274 274 275 277 279 280 280 280 281 281 281 282 282 283 283 283 282 281 279 277 275 276 274 273 273 274 275 278 279 279 278 276 279 280 280 282 283 284 285 286 287 290 292 292 293
268 269 269 269 269 269 269 269 269 268 268 270 273 274 275 276 276 274 273 272 272 272 272 272 273 273 273 276 276 274 274 274 276 278 279 277 274 274 274 274 274 273 274 275 275 275 278 278 279 280 280 281 281 282 282 282 283 282 278 275 277 277 275 275 273 275 276 278 279 281 278 277 280 281 281 283 284 285 285 285 286 287 290 291 293
268 269 269 268 268 268 268 268 270 269 267 269 273 274 275 276 275 274 273 271 271 271 271 271 272 273 273 275 276 276 275 275 278 278 278 277 275 275 275 274 272 272 272 273 272 272 273 274 274 274 274 275 274 274 276 280 281 281 279 278 278 277 275 275 275 276 274 276 280 282 278 278 280 281 282 280 279 282 285 285 286 287 288 289 289
Wind_Speed
6 5 5 4 4 4 4 5 5 5 5 4 3 2 2 2 3 3 3 3 4 4 4 4 4 5 5 5 5 6 5 6 5 6 5 6 6 7 12 16 19 20 20 20 20 20 19 18 18 17 17 17 16 16 16 15 16 17 18 18 18 18 18 19 19 20 19 17 16 14 14 14 14 14 16 18 17 16 19 18 19 19 20 21 22
6 5 6 5 5 4 4 4 6 4 5 4 2 2 2 3 3 3 3 4 5 5 4 5 5 4 5 5 5 5 6 6 7 7 7 6 6 6 10 13 16 18 19 20 20 20 19 19 18 17 17 17 17 17 16 16 16 16 17 18 19 19 18 18 19 19 19 20 18 17 15 14 13 12 13 17 19 17 17 18 20 19 19 20 21
6 5 5 6 5 5 4 4 5 4 3 3 1 2 2 3 3 4 4 5 5 5 5 5 5 6 5 6 6 6 6 5 6 5 6 6 6 6 7 12 14 16 17 18 18 18 18 18 18 18 17 17 17 17 17 16 17 17 17 17 18 19 19 19 19 19 20 20 20 19 17 16 15 14 13 14 17 20 19 18 19 21 21 20 21
5 5 5 6 6 5 4 4 4 3 3 3 3 2 3 3 3 3 3 4 5 5 5 5 6 6 6 6 6 6 6 6 7 8 8 8 6 6 6 7 11 14 16 17 17 18 17 17 16 17 17 18 17 17 17 17 17 18 18 18 18 18 19 20 21 20 20 20 20 20 20 18 17 15 15 15 15 16 20 20 19 20 20 20 21
6 5 5 6 5 5 4 4 4 3 3 3 3 3 3 4 4 3 4 4 4 5 5 5 5 6 6 6 5 6 6 6 7 7 7 7 7 7 7 7 7 9 12 13 16 17 17 16 16 16 16 16 16 17 17 17 17 18 18 18 19 19 19 20 20 21 21 21 20 20 20 20 20 19 17 16 16 16 17 21 23 21 21 21 21
6 5 5 6 5 5 5 4 3 3 3 3 3 3 3 3 3 4 4 4 5 5 6 7 6 5 6 6 6 6 6 6 6 7 7 7 6 6 6 6 6 6 7 10 13 16 17 16 16 15 14 14 15 16 17 18 19 19 19 18 18 18 19 19 20 20 21 21 22 21 20 21 21 21 20 19 17 16 16 18 21 26 22 21 21
5 6 6 6 6 5 5 5 4 3 3 2 3 2 3 3 3 4 3 3 3 4 5 6 6 7 7 6 6 7 6 7 7 7 6 7 5 6 6 6 6 5 5 5 7 12 15 16 16 15 14 14 15 15 16 18 19 19 19 19 19 19 19 19 19 20 20 20 21 22 22 21 21 22 22 21 20 18 18 18 19 21 27 26 23
6 5 6 6 6 6 6 5 4 4 3 2 2 3 2 3 2 3 3 3 5 5 4 6 6 7 7 6 6 6 7 7 8 7 7 6 6 6 6 6 6 5 5 5 6 6 12 14 15 15 14 14 15 15 17 18 19 19 20 20 19 19 19 20 20 21 21 21 21 21 22 23 22 21 22 23 23 22 20 18 18 19 22 25 27
6 5 6 6 6 6 5 5 4 4 3 3 2 2 2 1 2 3 3 3 4 5 5 5 7 7 7 8 7 7 8 8 8 7 6 6 7 6 6 6 5 5 5 5 6 7 8 12 14 14 14 14 14 16 18 19 20 20 19 19 19 20 21 21 21 21 21 21 21 22 22 22 23 23 22 22 23 24 23 21 19 20 20 22 24
6 5 6 5 5 6 5 5 4 4 3 3 2 1 2 3 2 1 3 3 4 5 7 6 6 7 8 8 9 7 8 8 8 7 6 7 6 6 6 5 5 6 5 6 6 7 6 8 11 11 9 8 11 16 18 19 20 20 19 19 20 20 20 21 22 22 22 22 21 21 22 22 23 23 23 23 22 23 24 24 23 21 21 22 24
6 6 6 6 6 5 5 4 4 4 4 3 2 2 3 3 3 0 1 1 2 3 5 7 7 7 8 9 8 8 9 8 8 7 6 6 6 7 4 5 5 5 6 6 6 6 6 6 4 3 3 6 11 16 18 19 19 20 20 20 21 21 21 21 22 23 24 24 23 23 22 22 22 23 23 23 24 23 24 24 25 25 24 21 21
7 6 6 6 6 6 5 4 4 4 4 3 3 3 3 3 1 0 1 0 1 3 3 5 6 7 9 8 6 8 10 9 8 6 6 5 5 5 5 5 5 5 5 5 6 5 5 4 3 4 4 6 11 13 15 18 18 19 20 20 21 22 24 24 24 24 24 24 24 24 24 24 23 22 22 23 24 24 24 25 25 25 26 25 23
7 7 7 7 6 6 6 5 5 5 5 4 4 4 3 2 1 0 1 1 0 1 3 4 6 6 5 7 8 6 10 9 6 5 4 5 4 4 5 5 5 5 5 4 4 5 4 4 5 6 6 6 5 8 12 16 15 17 19 21 23 24 25 25 25 24 24 24 24 25 25 25 24 24 25 26 28 26 25 25 25 25 27 27 25
8 7 7 7 7 7 6 6 5 5 4 4 4 3 2 1 2 1 0 1 1 1 4 4 3 5 9 12 6 4 6 4 3 3 3 4 5 6 7 6 6 5 5 5 5 4 5 5 6 6 5 4 4 5 6 6 7 13 19 22 24 24 25 25 25 25 25 24 24 25 25 25 26 27 27 27 28 28 27 25 25 25 26 27 29
8 8 8 7 7 7 6 6 6 5 5 5 4 4 3 3 3 2 0 0 1 1 1 4 2 4 6 3 5 12 5 4 2 6 14 13 8 6 6 5 6 5 5 4 5 6 5 6 5 4 4 4 5 5 5 6 8 12 18 21 23 24 26 26 25 25 25 25 25 25 25 25 26 26 27 28 27 27 26 26 25 25 25 26 27
8 7 6 7 7 7 7 7 6 5 6 6 5 4 4 3 3 2 2 1 1 1 1 3 2 5 7 3 5 2 8 2 12 14 14 11 5 6 4 6 4 5 4 6 7 6 6 5 4 5 5 5 5 5 6 6 10 12 14 16 19 22 24 25 25 25 26 25 25 25 26 27 28 29 28 28 30 28 27 26 26 25 26 27 27
8 8 8 8 7 7 7 7 6 6 6 6 5 5 5 4 4 4 3 1 1 0 1 2 1 1 1 3 4 3 2 9 13 11 1 2 6 9 8 6 6 6 5 6 6 6 6 5 5 4 5 5 6 7 7 7 7 7 9 11 15 20 22 24 25 25 25 26 27 27 28 29 28 28 29 29 29 30 30 30 28 28 27 27 28
8 8 8 8 8 8 7 7 6 6 6 6 5 5 4 4 5 5 3 3 2 1 2 1 0 0 2 4 4 5 7 7 6 8 1 10 11 9 6 5 5 5 5 6 7 7 5 6 4 5 5 6 6 7 7 7 8 8 7 8 19 22 22 23 24 26 27 28 28 28 28 28 28 28 29 29 31 32 31 30 29 29 31 29 29
8 8 8 8 8 8 8 7 7 6 5 6 6 6 6 5 4 4 4 4 3 2 3 3 3 1 2 3 4 5 5 5 5 7 18 0 3 3 4 5 5 5 7 6 6 6 6 5 5 5 5 5 7 7 8 9 9 10 14 18 21 22 23 24 25 25 26 27 28 28 29 29 29 29 30 31 32 32 31 32 31 32 33 35 34
9 8 9 8 8 8 8 7 7 6 6 7 7 6 5 3 4 4 4 4 4 4 3 1 1 3 0 2 3 4 4 4 5 7 8 17 11 2 4 7 5 5 7 10 10 8 8 5 4 6 7 8 8 9 9 10 9 9 8 17 22 23 23 24 25 25 27 28 29 29 29 30 30 30 31 31 32 34 35 35 36 34 34 33 34
9 9 9 9 8 8 8 7 7 7 7 6 5 6 5 5 4 4 4 3 4 3 2 4 3 5 1 2 2 4 5 4 5 3 6 8 19 11 9 4 5 7 10 10 7 6 5 5 6 9 9 9 9 9 8 9 9 9 9 17 21 23 24 25 26 28 28 29 30 30 30 31 31 31 31 32 32 33 33 35 37 36 34 34 35
9 9 9 9 8 8 8 9 8 8 7 6 5 5 4 4 4 4 4 4 3 4 5 5 4 3 3 3 4 4 4 4 3 5 5 8 14 18 10 15 18 2 4 8 9 6 5 8 9 10 10 8 7 8 8 8 8 7 8 18 21 22 24 26 28 29 29 29 29 30 30 30 31 31 31 32 33 34 35 35 34 37 37 36 35
8 8 9 8 8 8 8 8 7 7 7 6 6 6 6 5 5 4 4 5 4 4 3 4 4 4 3 5 6 6 6 5 6 5 5 7 10 15 15 13 13 20 4 7 3 7 10 9 9 11 7 7 7 7 7 6 6 8 16 20 21 24 26 28 28 29 29 29 30 29 30 30 30 31 32 32 32 33 33 35 37 37 37 36 37
8 8 8 9 9 8 8 7 8 7 7 6 6 6 5 5 5 5 4 4 4 4 4 4 4 4 4 5 6 5 6 7 6 6 6 9 8 15 15 15 15 9 8 8 7 11 9 9 7 8 9 9 7 6 6 6 6 12 14 17 23 24 25 27 28 29 29 29 29 29 30 30 31 31 31 32 33 34 34 35 35 37 39 39 39
10 11 10 12 10 9 9 9 8 7 7 6 6 6 6 6 5 4 5 5 5 5 5 5 5 5 5 4 5 5 6 6 5 6 6 6 8 13 14 8 15 20 9 4 9 3 7 12 8 8 7 6 6 5 3 4 6 10 17 13 22 22 24 27 28 29 30 30 30 30 30 30 31 32 32 33 34 35 35 36 36 35 40 40 40
13 14 12 12 10 10 9 8 7 7 7 7 7 6 6 6 5 5 5 5 4 4 5 4 4 4 3 5 5 6 6 5 6 6 7 7 9 10 14 12 9 16 16 11 7 8 1 6 5 5 5 5 6 4 3 5 5 10 17 14 17 22 25 28 29 29 30 30 30 30 30 31 32 32 32 34 35 35 37 38 36 37 39 41 40
12 10 10 11 11 9 9 9 8 8 7 7 6 6 5 5 5 5 4 4 4 5 5 5 5 4 4 5 6 6 6 6 6 7 6 8 8 8 8 15 17 11 12 15 16 14 10 9 6 7 6 6 6 4 3 3 7 14 17 13 12 21 25 27 29 30 30 30 31 31 31 32 33 34 35 33 34 36 38 37 38 37 38 41 41
8 9 10 11 11 10 9 9 8 8 7 7 7 6 5 5 4 4 4 3 5 5 5 5 6 5 5 5 5 7 6 6 6 7 7 7 7 6 6 8 10 19 16 15 14 17 10 5 7 7 7 2 4 4 5 7 7 13 15 11 12 14 23 28 30 31 32 32 32 32 32 32 32 33 34 35 37 36 37 37 37 39 41 41 41
9 9 11 10 10 10 10 9 9 8 7 7 6 6 5 5 5 5 5 5 5 6 5 5 5 4 4 6 7 7 6 5 6 6 7 6 7 6 6 8 8 11 12 15 23 15 18 4 6 5 5 2 5 4 4 5 8 11 12 12 12 14 21 29 31 32 32 33 33 33 33 33 33 34 34 34 35 37 38 36 36 37 39 39 42
10 9 10 11 10 10 9 9 8 8 8 7 7 6 6 6 6 6 6 5 5 4 4 5 5 4 5 5 6 7 6 5 6 6 6 7 7 7 7 6 6 10 10 13 22 19 15 19 4 9 12 6 6 10 8 9 14 15 11 14 14 13 25 29 31 32 32 33 33 33 34 34 34 34 34 34 35 35 37 38 37 36 38 40 39
10 10 10 10 10 9 9 9 8 8 7 7 6 6 6 6 5 5 4 4 5 5 5 5 5 4 5 7 6 7 5 5 6 6 6 6 6 6 6 6 7 9 11 11 16 24 9 15 19 6 10 17 13 11 13 11 11 15 13 12 14 20 28 24 31 32 32 32 31 32 33 34 35 34 35 34 35 36 36 38 39 39 39 39 41
10 11 11 11 11 11 9 9 9 7 8 7 7 7 6 6 6 6 5 6 6 6 5 5 4 4 5 6 7 7 5 4 6 6 6 6 6 7 7 7 8 9 9 11 15 25 20 14 19 22 13 15 19 15 13 15 9 15 13 13 13 23 18 14 24 30 31 31 32 32 33 35 35 35 35 36 36 37 37 37 39 39 39 38 38
11 11 11 11 11 11 10 9 9 9 8 8 7 6 6 6 6 6 6 6 7 6 5 5 4 4 5 7 8 7 5 7 7 6 7 7 7 7 7 8 9 8 9 11 15 20 21 15 15 20 19 14 18 16 13 15 13 10 13 13 13 13 14 13 14 24 31 31 33 33 34 35 36 36 35 35 36 37 38 38 38 37 38 37 36
11 12 12 10 10 11 10 9 9 8 8 7 6 7 7 7 6 5 6 7 6 6 4 5 5 5 5 7 8 7 5 7 7 8 7 7 7 8 8 8 9 9 9 10 13 15 23 20 18 17 20 14 18 16 14 15 16 12 15 16 13 11 12 12 14 15 30 31 33 34 34 36 36 36 36 35 36 37 37 37 36 35 33 33 35
9 11 12 11 11 10 9 9 8 8 8 7 7 7 7 7 7 6 6 6 6 6 6 6 5 4 6 7 8 7 5 7 8 8 7 8 7 9 10 8 10 10 9 11 11 15 19 22 19 19 20 18 15 17 17 15 15 13 14 15 14 11 11 13 14 14 26 32 33 33 35 35 35 36 37 37 36 36 36 37 36 35 34 29 33
12 9 10 11 10 10 10 9 8 8 8 7 7 6 7 6 6 6 6 6 5 5 6 5 5 5 7 8 8 7 7 8 8 8 7 7 7 8 9 9 10 12 11 11 14 14 16 21 18 18 17 18 19 15 15 14 16 15 15 13 13 14 13 13 13 15 20 32 34 34 34 36 36 36 37 37 36 36 37 37 36 31 30 31 31
10 10 9 9 10 10 10 11 10 10 9 9 8 7 6 6 6 6 6 5 5 6 5 5 6 7 8 9 9 7 7 9 9 8 7 9 9 9 10 10 11 11 11 12 13 13 15 21 20 16 18 17 19 19 16 18 18 15 14 15 14 15 15 14 13 14 24 34 33 34 33 34 35 35 37 36 34 35 35 35 35 35 33 30 29
11 11 12 10 11 12 11 11 10 9 9 8 8 7 6 5 5 5 5 5 5 5 6 6 6 7 8 9 8 8 8 10 10 9 9 10 10 10 12 12 12 12 14 15 15 15 15 16 19 23 16 15 19 21 15 15 18 15 16 17 17 16 16 15 13 12 12 12 12 13 21 26 31 35 36 35 35 35 35 34 34 32 29 29 28
13 12 11 11 9 10 9 9 9 9 8 7 7 6 6 6 6 5 5 5 5 5 5 6 7 8 8 8 9 9 10 10 11 10 10 11 11 13 13 14 15 15 15 14 15 15 19 17 15 18 23 16 18 20 17 14 18 16 15 20 18 17 14 14 14 10 10 14 21 29 28 28 31 28 31 37 37 37 37 36 34 32 30 28 27
11 11 12 11 8 8 8 8 8 7 8 7 6 6 6 6 5 5 5 5 6 6 6 7 7 8 9 9 9 10 11 11 11 11 12 12 11 14 14 14 15 15 15 14 14 13 15 18 16 16 20 19 16 20 16 16 14 19 13 17 22 20 16 12 13 14 11 11 14 14 17 21 22 28 33 32 35 34 34 35 37 33 31 30 30
9 9 9 9 9 8 7 8 7 6 6 7 6 6 6 6 6 5 5 5 5 5 5 6 7 9 9 9 9 10 11 16 21 20 19 19 13 12 11 10 10 11 12 12 11 11 14 15 17 16 18 16 15 19 12 15 13 19 14 15 21 20 15 15 13 12 13 14 13 14 15 12 14 14 15 14 17 23 26 30 26 31 30 29 28
8 8 8 8 9 9 10 7 6 6 7 5 7 12 10 6 5 5 5 5 6 5 6 7 9 9 9 10 10 18 20 21 21 22 23 24 26 21 16 14 14 13 14 14 14 12 11 11 12 11 12 14 16 17 12 18 15 15 20 16 19 21 15 15 19 13 11 12 13 12 12 9 12 12 11 12 13 15 14 14 12 15 18 24 24
11 10 10 11 10 9 9 7 7 5 5 5 12 12 12 14 8 7 5 5 6 7 8 9 9 10 10 11 11 13 15 17 16 22 24 26 26 27 29 28 24 19 16 16 15 14 14 15 15 15 16 18 21 15 19 14 16 13 17 16 16 14 18 15 21 18 8 9 12 14 14 10 9 13 15 14 13 13 15 13 17 19 23 23 23
10 10 11 11 8 6 5 6 6 6 6 9 13 12 12 12 10 6 6 6 5 7 8 9 9 10 10 10 10 10 9 11 11 13 17 23 26 27 29 28 27 28 27 20 17 15 13 13 15 18 17 18 20 19 16 18 19 19 15 14 17 18 17 17 17 17 12 6 12 15 18 13 10 11 12 12 11 12 14 23 28 27 26 26 25
10 11 11 11 8 6 6 7 7 7 6 11 12 12 11 10 10 8 3 4 6 8 9 9 10 10 9 11 11 11 10 17 15 13 14 15 21 27 28 29 29 30 29 31 30 23 17 17 18 21 19 21 19 19 17 19 16 21 17 17 16 14 15 19 17 18 15 3 9 14 18 15 9 11 13 14 12 12 15 23 28 27 28 28 28
10 9 8 9 8 7 7 8 7 7 7 9 11 10 9 9 9 8 4 6 7 9 9 9 9 10 10 11 11 11 11 12 12 13 14 15 15 14 15 14 14 20 26 29 31 33 28 21 20 21 24 20 24 23 23 21 21 20 17 18 16 17 17 19 20 19 15 9 12 16 19 17 10 13 14 13 10 14 15 21 27 27 28 28 28
11 11 10 10 8 8 8 6 6 6 5 11 11 10 9 9 9 9 5 6 7 6 6 8 10 10 11 11 12 12 13 14 12 14 16 14 13 13 14 16 15 15 16 16 17 18 18 18 19 22 22 23 23 23 22 18 20 19 19 20 19 19 17 20 19 17 18 14 15 14 17 13 10 13 16 13 13 15 13 17 25 26 27 28 28
8 8 7 8 8 9 9 8 7 6 6 11 10 9 9 9 10 5 4 5 4 5 8 8 9 9 10 11 11 13 14 15 18 24 21 17 15 16 16 16 17 19 18 19 28 25 23 20 18 18 19 22 28 24 23 20 17 17 16 16 16 15 15 17 19 16 14 12 11 13 14 13 11 12 14 11 12 14 13 12 16 23 25 27 28
12 11 11 9 7 9 10 10 7 5 5 9 10 10 9 9 8 3 3 3 6 7 8 8 8 9 10 11 12 12 14 14 19 24 24 23 15 15 17 19 19 17 15 15 20 28 29 29 33 35 38 39 39 40 39 42 32 25 18 18 17 12 15 12 16 18 17 11 10 12 13 15 10 12 13 12 12 14 13 11 11 16 24 26 27
11 8 6 10 11 10 10 8 7 7 6 8 11 10 11 10 8 5 5 5 4 5 6 8 8 9 11 18 17 14 15 15 20 23 24 20 14 16 17 17 17 17 19 18 14 16 26 32 35 35 34 33 35 39 40 39 39 31 19 21 18 12 15 14 13 13 10 11 11 9 12 15 10 11 13 13 13 11 11 12 14 15 21 22 27
11 9 11 9 8 6 5 7 12 9 6 8 12 11 11 10 8 4 5 4 5 5 5 6 8 9 10 11 17 17 16 18 24 23 24 20 15 15 14 17 19 20 18 17 19 19 18 15 15 17 19 25 25 23 24 37 37 34 23 21 17 14 17 16 14 13 14 12 8 8 12 12 10 13 12 11 12 12 10 11 11 9 8 7 10
Wind_Direction
130 135 126 108 94 83 80 77 81 81 78 69 79 59 23 1 349 340 343 344 341 337 336 328 324 325 330 328 328 327 328 324 319 315 311 308 310 308 315 320 321 321 322 324 323 323 324 325 325 326 325 325 324 322 320 319 318 319 318 317 315 314 312 310 308 307 306 304 301 297 294 291 284 277 271 262 253 251 256 253 246 238 235 233 225
132 132 119 110 101 92 84 88 90 98 85 74 71 73 23 0 356 354 352 353 349 336 345 332 331 329 333 330 325 324 322 323 321 320 317 319 317 313 312 314 317 319 321 321 321 323 323 326 327 327 326 325 324 323 323 322 320 319 318 317 317 316 315 313 312 309 307 304 300 297 295 291 287 281 275 273 266 255 248 251 254 246 235 234 229
128 132 121 116 111 106 105 102 92 99 101 80 57 47 31 26 4 354 3 359 348 339 346 340 335 335 331 330 324 323 319 315 311 307 309 307 308 308 308 312 314 316 318 318 318 320 323 324 326 326 327 327 326 326 325 324 324 321 320 317 316 316 316 316 314 312 310 308 306 302 296 292 287 283 277 273 272 268 256 247 245 248 244 238 234
133 135 130 123 121 118 125 105 116 108 97 85 50 43 51 19 12 16 13 6 349 344 343 345 335 325 324 322 321 322 319 319 318 318 315 312 308 305 304 306 310 310 311 312 314 316 318 321 323 326 327 327 327 327 326 326 326 324 322 320 318 316 315 315 315 314 312 309 307 305 303 298 293 283 275 272 270 270 267 257 247 245 244 241 239
147 145 137 132 130 125 123 121 124 116 92 82 72 49 36 26 13 17 14 7 358 344 343 337 326 319 319 313 318 313 309 311 305 305 303 301 303 308 309 307 303 302 303 304 307 309 312 316 322 324 324 326 327 327 328 328 326 323 321 319 318 316 315 314 314 313 312 311 309 307 305 303 300 296 289 277 270 266 265 267 260 246 242 238 239
149 148 138 137 134 133 133 122 138 116 96 84 69 60 41 39 21 30 6 9 358 344 341 331 318 310 308 305 309 301 304 300 295 291 290 287 289 288 287 287 286 294 299 299 301 301 304 311 316 319 321 322 325 326 326 325 323 321 320 319 318 316 315 314 313 311 311 311 311 310 308 305 304 301 297 289 280 270 262 261 262 260 249 241 239
160 148 147 141 137 135 124 146 135 115 89 92 94 57 67 46 36 25 11 6 1 338 332 314 313 315 310 310 305 306 301 293 292 289 281 282 282 273 268 267 269 270 276 281 286 289 293 300 309 314 317 322 323 323 321 322 321 320 319 319 318 318 317 317 316 313 311 309 309 309 308 306 304 302 302 300 292 278 268 263 259 257 259 257 245
158 154 145 146 141 139 143 139 127 107 107 82 81 77 67 46 10 47 31 357 348 331 326 314 309 307 306 303 298 300 297 293 291 286 280 283 274 272 267 266 271 272 275 279 278 274 280 290 298 306 312 316 317 318 319 319 319 317 316 316 316 317 318 317 315 312 311 310 308 305 304 304 303 301 300 298 297 295 284 269 261 256 257 256 256
160 156 146 150 142 137 146 132 129 126 123 108 92 119 95 79 14 51 64 358 346 323 320 315 313 307 307 304 301 301 295 293 286 278 285 271 273 271 272 272 270 270 275 275 275 271 279 283 289 295 299 303 311 316 317 317 316 314 313 315 316 316 315 313 311 309 307 304 304 302 301 299 299 299 298 296 294 292 291 284 269 264 258 254 253
163 158 151 152 146 138 137 135 127 126 128 119 133 105 90 106 78 46 50 22 342 331 318 315 311 309 307 304 302 295 287 288 277 280 272 271 268 268 267 275 276 273 271 269 264 272 273 279 286 293 301 305 313 315 314 314 313 314 314 313 312 310 309 309 308 308 306 304 301 299 297 295 295 294 295 295 293 290 288 286 283 271 260 258 255
164 160 153 150 142 137 134 144 136 134 126 129 120 97 95 100 103 75 39 19 287 297 296 304 310 304 298 294 290 285 283 275 276 276 262 259 268 270 280 272 267 268 268 263 267 273 273 277 282 284 288 301 315 312 310 311 312 312 310 308 307 308 308 307 307 306 305 304 302 301 299 294 292 291 291 291 291 289 287 285 282 280 273 258 252
165 161 155 153 148 151 148 147 144 140 140 139 153 141 124 91 87 50 352 82 223 275 294 308 299 296 291 286 270 277 279 271 275 267 269 270 267 278 281 273 271 270 268 265 277 276 285 287 286 297 310 307 304 304 305 307 308 306 303 303 305 306 306 304 303 302 301 300 299 298 297 295 293 292 293 292 289 287 286 283 282 280 276 272 260
165 162 164 158 153 149 148 155 153 151 155 173 171 158 151 146 151 87 349 23 1 165 298 310 308 307 267 269 290 270 266 274 272 278 280 277 272 284 271 279 274 276 264 277 283 289 287 294 303 311 305 296 292 297 301 302 298 298 299 302 303 303 303 302 301 299 296 295 294 293 293 292 290 290 290 290 289 284 281 281 280 278 277 273 267
170 168 168 161 155 154 156 162 160 166 170 165 158 155 138 129 126 44 16 14 320 30 321 5 11 6 332 328 308 263 260 287 274 299 305 282 291 295 291 285 285 278 288 294 291 290 291 292 298 292 285 280 284 290 290 288 287 294 297 299 300 301 300 299 297 296 295 294 294 293 290 288 288 287 286 283 281 281 280 278 278 276 275 276 276
173 172 167 165 160 154 163 166 166 162 151 155 148 149 153 150 147 143 355 352 271 290 324 54 324 325 288 294 334 344 343 354 359 0 312 301 305 292 283 282 275 275 282 289 287 286 282 282 279 281 281 283 284 279 277 279 282 286 293 296 297 297 296 295 295 294 295 295 294 292 291 290 288 286 283 281 277 274 276 277 276 276 275 273 274
172 169 167 163 160 163 162 165 173 166 163 161 159 164 153 141 139 147 136 29 34 310 74 54 62 357 2 23 303 359 314 337 339 316 299 298 291 281 280 281 278 295 302 290 282 277 272 273 275 277 274 278 280 285 282 282 283 286 288 288 289 292 294 294 294 294 294 293 293 293 293 291 290 288 285 284 281 276 272 273 277 278 277 277 273
172 173 167 167 164 162 164 169 167 172 160 163 166 174 169 169 155 138 142 152 263 225 313 88 33 102 151 350 337 1 250 311 327 295 303 6 308 294 293 280 287 284 277 269 270 264 270 276 277 271 279 285 290 287 285 284 288 287 287 288 288 292 292 292 292 293 294 295 295 293 292 291 288 286 285 283 279 278 277 276 276 277 275 274 273
173 172 170 165 167 167 167 167 172 170 166 165 164 157 167 161 173 156 161 172 167 220 275 349 159 184 192 190 193 236 311 312 343 306 248 286 261 269 266 271 273 275 259 270 268 273 273 279 276 285 291 294 292 291 290 292 293 294 292 289 295 295 295 295 295 294 293 293 292 291 290 289 288 288 286 284 282 279 275 270 271 278 281 277 274
177 174 171 170 166 169 170 172 171 169 166 156 167 178 179 173 160 142 166 162 145 205 253 277 355 276 212 243 254 272 283 313 280 311 317 48 131 221 264 272 270 271 280 266 273 283 275 275 284 291 295 294 294 296 299 297 296 296 296 298 299 297 296 295 293 293 293 294 293 292 290 289 288 287 286 284 281 278 277 275 274 272 270 271 270
173 178 175 172 170 171 171 169 169 174 166 172 175 180 166 163 155 165 157 158 163 189 230 199 205 285 81 309 298 284 271 261 245 269 280 301 294 218 231 243 248 265 277 289 287 280 290 288 293 303 299 292 294 296 296 296 297 298 299 298 297 296 296 296 297 297 296 293 291 290 288 286 285 284 283 282 279 277 276 273 272 270 268 264 266
178 177 178 174 173 171 169 170 171 177 174 171 175 172 170 161 155 145 155 156 159 179 176 213 187 229 278 291 289 265 275 259 277 249 271 291 290 297 303 235 224 259 268 269 270 281 285 280 297 293 286 289 290 289 289 291 292 291 290 295 297 299 299 299 298 294 291 290 290 289 289 287 285 284 282 280 278 276 274 273 272 271 267 264 261
182 180 177 177 172 169 171 174 176 177 174 175 171 171 171 168 170 174 169 173 177 177 198 202 195 207 198 233 260 282 282 283 251 261 260 234 272 299 305 311 308 235 263 272 278 266 262 290 284 272 277 281 278 280 282 280 285 289 290 297 299 300 300 298 295 293 292 292 292 291 289 289 287 286 284 281 278 276 274 271 271 272 269 263 262
178 183 179 174 173 173 175 177 175 175 172 171 179 175 175 169 168 164 169 175 188 198 214 209 201 208 214 208 227 231 238 257 266 265 262 283 294 285 300 299 292 305 258 231 230 261 280 272 270 279 272 270 279 278 275 273 282 290 296 300 300 300 298 296 296 295 294 293 291 291 291 290 289 287 286 284 281 277 275 274 271 270 268 265 263
180 179 183 177 175 179 175 172 176 174 177 174 173 172 172 167 170 175 185 187 188 194 200 214 217 220 227 218 233 230 244 245 257 248 250 268 272 287 295 305 298 256 294 284 255 263 250 244 251 259 267 275 267 259 269 287 291 298 301 297 297 297 297 297 297 296 294 293 292 292 291 290 290 288 285 283 280 278 275 271 271 269 267 265 262
187 184 189 182 176 174 177 178 177 179 172 172 177 172 171 171 176 178 175 177 185 191 204 216 207 217 223 226 225 238 244 249 249 247 260 264 271 288 283 289 293 302 292 293 307 255 249 263 240 247 255 221 240 253 262 279 287 290 295 292 292 296 298 298 297 295 294 293 293 293 292 290 289 288 286 284 281 277 273 274 271 267 265 262 261
183 190 185 178 180 181 175 175 173 171 173 174 174 175 171 175 174 174 176 181 177 197 210 219 223 225 223 237 237 238 245 237 239 247 255 265 269 270 294 293 279 291 301 304 282 304 300 190 240 223 211 249 246 230 259 276 278 285 288 292 295 297 297 296 295 293 293 293 294 294 294 293 290 288 286 282 280 278 278 272 267 268 264 261 258
186 184 171 178 178 171 175 172 173 175 173 172 172 172 171 166 167 169 171 173 194 199 212 213 226 229 226 225 240 243 245 237 237 245 241 245 256 269 288 303 304 281 292 303 303 277 258 272 205 248 248 204 241 251 242 236 274 287 295 294 293 296 296 295 294 293 293 293 292 293 292 291 289 287 284 287 295 292 278 272 276 268 264 260 258
176 168 178 174 173 175 173 176 172 171 172 169 167 166 166 163 167 166 184 179 198 209 216 211 226 228 232 235 237 248 242 239 232 241 239 245 248 260 263 276 290 304 309 299 297 291 292 294 293 179 232 199 189 224 256 284 290 291 291 291 294 294 293 293 292 291 292 292 291 291 291 290 288 286 284 285 285 281 283 277 269 270 267 264 261
172 172 171 175 173 171 171 168 170 169 165 164 164 164 162 166 172 175 192 195 201 214 215 214 227 219 225 230 236 246 244 236 238 237 244 243 244 247 242 246 265 277 298 308 299 298 301 335 308 310 146 256 275 215 264 274 273 286 291 288 288 289 289 291 290 289 288 289 290 290 289 288 287 285 283 282 280 277 274 274 276 275 270 265 260
168 171 169 169 169 166 164 166 165 163 168 166 166 166 166 178 179 188 193 186 206 219 216 217 229 217 228 236 236 244 243 237 234 240 240 239 243 240 240 239 233 249 269 284 289 289 296 301 253 285 302 281 284 296 284 282 287 288 283 287 286 282 286 287 287 287 286 287 288 288 288 288 285 284 283 280 278 277 272 269 272 274 276 272 266
166 164 165 165 165 166 162 164 166 170 165 168 166 171 173 177 182 190 193 186 206 221 220 213 225 213 228 242 241 248 244 242 244 245 243 240 244 243 240 243 239 243 260 267 281 282 282 290 298 262 289 300 295 290 296 288 280 283 280 277 282 284 286 285 284 284 285 284 285 286 287 287 285 284 282 279 277 274 272 268 264 265 270 270 268
169 165 166 168 167 165 168 166 168 165 169 171 172 171 172 181 180 190 195 190 205 218 222 212 215 209 226 240 244 249 247 242 248 246 246 245 247 246 244 243 244 240 246 255 257 274 283 286 290 294 289 294 298 293 289 287 281 281 283 280 277 283 283 279 281 281 282 283 283 285 286 286 285 284 283 281 277 274 272 268 263 266 268 269 266
163 165 167 169 168 169 167 169 170 173 173 176 174 171 177 184 187 192 192 191 205 218 210 225 216 222 235 246 251 253 244 249 250 251 247 248 247 247 246 245 245 239 235 247 259 272 283 278 283 289 296 297 290 289 288 286 289 285 279 279 279 276 278 277 276 277 280 281 282 284 284 284 285 283 282 280 277 275 272 268 264 263 266 269 268
167 168 169 169 169 168 168 171 173 173 175 172 171 170 181 183 192 190 193 198 210 218 214 232 228 228 236 245 253 251 242 246 250 251 249 252 247 251 246 242 249 245 238 248 257 269 278 289 285 287 288 287 284 289 290 289 290 287 283 283 277 269 271 272 273 273 277 279 281 282 284 284 284 283 282 280 277 276 274 271 266 262 263 265 268
172 171 170 169 171 169 170 171 169 171 171 171 173 175 181 183 191 197 194 199 209 217 221 230 229 228 240 247 254 253 249 252 250 253 251 253 249 251 254 249 253 251 243 239 254 263 271 278 284 288 287 292 282 291 290 286 284 286 282 279 281 271 263 264 270 272 277 279 281 282 284 285 285 285 284 281 276 274 274 273 270 265 261 262 265
171 174 168 170 168 171 169 166 167 165 167 170 171 177 182 186 192 199 200 206 212 220 225 233 237 236 245 254 253 253 251 255 255 256 250 249 252 256 262 259 257 257 252 247 245 256 266 274 276 277 284 288 286 283 285 283 285 286 281 275 267 266 265 263 261 268 275 278 281 282 284 286 285 285 283 280 274 272 272 271 272 270 264 262 260
172 164 170 168 169 170 172 171 170 171 171 168 172 178 182 183 189 194 202 206 217 223 229 234 241 243 248 250 257 253 255 259 262 258 256 257 258 259 261 260 258 259 255 251 248 244 259 267 274 269 274 276 279 281 285 290 287 279 271 269 270 267 265 259 262 266 271 278 280 281 280 282 284 286 285 282 274 270 269 267 266 266 267 265 264
170 174 172 175 176 177 175 172 168 166 163 167 172 175 178 179 184 194 201 214 221 228 233 236 238 244 248 250 253 255 257 262 267 265 263 262 262 260 258 257 255 252 251 249 247 242 241 254 263 276 265 269 281 277 275 273 278 283 279 274 272 267 270 268 258 262 270 269 273 269 273 277 282 282 282 281 279 273 269 265 264 261 259 258 256
172 174 177 175 180 174 169 160 163 161 160 163 167 174 176 178 184 192 205 215 225 229 237 238 244 244 247 251 255 255 258 259 264 265 269 264 260 256 249 254 253 253 255 254 256 257 260 254 257 260 270 267 272 276 278 263 266 266 276 286 282 273 264 263 269 256 254 266 266 270 275 279 280 281 277 279 278 272 268 265 264 261 259 257 255
175 176 175 176 172 166 163 161 157 154 158 163 167 171 175 176 183 199 204 219 228 235 237 243 243 249 252 255 253 252 256 258 258 263 258 262 261 265 265 261 258 256 258 257 254 252 261 259 257 266 264 267 274 265 273 275 268 271 257 276 276 284 279 260 255 268 261 252 269 272 269 273 275 277 276 274 274 272 269 265 261 259 258 258 257
172 172 169 164 159 159 155 158 152 147 145 168 167 172 176 184 187 202 208 216 217 220 232 243 252 252 252 251 251 251 255 262 266 268 270 270 267 260 251 236 239 244 253 255 252 253 255 256 263 259 261 264 262 264 263 264 247 266 266 268 270 273 280 273 255 239 258 267 267 266 269 267 272 271 268 265 265 266 265 262 258 254 253 252 252
161 157 158 162 166 166 163 153 149 143 161 162 182 193 192 183 188 191 206 209 220 232 243 254 255 251 254 259 261 268 271 271 273 274 276 276 276 277 279 277 274 273 273 276 274 270 262 260 255 262 258 256 262 267 254 265 258 267 265 265 267 271 274 266 274 258 255 259 267 263 263 255 261 267 270 276 276 268 265 258 252 251 248 249 248
161 163 164 169 172 168 161 151 153 155 156 167 197 206 210 205 190 194 198 211 216 234 246 253 258 263 266 267 270 271 272 276 278 280 280 278 277 276 277 279 279 279 283 282 280 276 275 272 273 271 268 273 275 273 274 276 271 265 265 270 262 263 272 276 282 283 235 245 262 266 267 258 266 278 277 272 277 288 289 283 273 259 255 254 255
165 161 171 163 132 142 133 141 151 157 165 190 199 204 207 214 209 184 185 202 225 247 250 252 259 265 270 274 274 274 272 274 276 275 275 275 278 280 281 280 280 281 279 280 284 283 278 281 279 275 277 272 275 279 275 277 277 276 268 265 267 270 266 265 268 274 272 235 268 275 275 270 260 259 268 270 270 272 272 275 272 271 268 264 257
160 168 168 163 159 142 148 153 161 170 170 190 196 199 206 213 221 224 197 218 241 246 251 256 261 266 274 278 278 276 277 281 281 276 274 273 274 278 281 283 284 283 282 281 279 278 281 277 276 278 274 279 279 274 272 274 277 275 275 270 268 268 268 275 273 278 275 218 254 270 278 278 273 269 267 266 264 262 265 267 266 266 264 261 257
163 162 158 160 154 151 160 165 164 169 169 183 192 199 206 214 220 224 225 232 241 246 248 258 267 273 275 275 277 279 279 279 273 271 273 274 274 273 272 271 272 277 281 282 281 282 277 275 271 270 273 270 273 276 274 271 270 269 268 266 260 261 260 261 267 266 269 262 266 276 279 273 271 274 268 268 261 261 259 262 262 262 262 261 259
164 166 163 165 169 165 166 162 151 154 157 178 188 195 198 210 217 224 229 235 239 242 257 266 267 268 273 273 276 279 280 280 276 277 282 282 280 281 281 280 278 281 279 275 270 271 266 265 261 264 269 270 268 269 267 263 255 257 257 257 257 254 258 263 261 256 263 252 252 258 265 274 270 270 269 272 271 264 259 257 256 259 262 263 262
154 151 158 163 161 162 159 155 141 155 168 185 191 197 204 208 213 218 221 227 237 261 260 261 268 272 272 274 275 276 276 277 280 284 288 292 291 289 289 289 287 283 275 272 278 277 281 275 276 274 275 277 279 276 272 267 260 255 251 254 256 254 256 257 257 261 254 250 224 243 258 265 256 261 270 263 258 263 260 258 259 260 260 260 261
166 171 172 166 151 152 151 149 149 150 162 189 192 197 203 205 210 194 203 225 230 242 260 267 271 274 274 273 274 276 278 279 283 289 293 297 297 297 292 288 285 284 283 286 290 290 290 289 289 289 288 287 286 286 284 282 279 277 274 267 255 243 251 249 256 260 259 255 229 221 246 263 251 259 267 263 257 261 262 260 261 263 264 263 263
174 170 154 135 146 140 147 157 163 161 164 184 192 197 198 203 207 188 203 202 235 249 262 271 274 274 273 276 277 279 283 283 287 293 298 304 298 291 287 288 294 298 297 299 301 300 295 290 285 285 286 288 290 289 287 284 281 277 270 268 269 262 257 255 260 260 263 247 236 199 242 250 257 251 263 264 265 256 260 265 266 264 263 264 264
172 152 139 144 137 141 148 153 172 167 163 188 194 192 196 202 207 183 192 207 230 244 263 268 271 278 277 278 281 281 283 286 293 299 302 303 294 293 301 304 300 297 300 308 301 295 292 293 294 304 299 293 289 284 280 281 278 275 266 261 263 255 258 260 259 268 269 252 239 205 250 258 248 251 254 269 264 259 242 243 250 248 252 255 276